sat.trackr.live / text

‹ back to catalog

ONEWEB-0235

NORAD 48771 · 2021-045E

PAYLOAD ACTIVE UNKNOWN

§ Identity

Operator
Country
UK
Launch date
2021-05-28
Launch site
VOSTO
Launch vehicle
Mass (kg)
RCS (m²)

Purposes: comms

External: N2YO · Heavens-Above · Gunter

§ Orbital elements

Epoch: 2026-09-20T04:47:56.736672Z

Period
109.46 min
Inclination
87.8991°
Eccentricity
0.0002040
Mean motion
13.15549517 rev/d
Perigee alt
1,200.2 km
Apogee alt
1,203.3 km
Semi-major
7,579.9 km
B*
-3.0710e-4
RAAN
240.2516°
Arg perigee
71.1409°
Mean anomaly
288.9943°
Rev number
25,687

§ Raw data

ONEWEB-02351 48771U 21045E   26263.19996223 -.00000103  00000+0 -30710-3 0  99982 48771  87.8991 240.2516 0002040  71.1409 288.9943 13.15549517256871

JSON: /api/v1/satellites/48771 · /tle

For live sub-satellite position, see the globe view (requires WebGL).

§ Visibility from observer

Set your observer location to see the next 7 days of passes ≥ 10°. The values pass through the URL so the page stays shareable.

No JS? Fill the form by hand. The geolocation button needs JavaScript.